Weather in Taptykovo

Russia / Republic of Bashkortostan     54°36′19″N   55°47′13″E
temp.,
°C
wind,
m/s
gust,
m/s
humid.,
%
clouds,
%
prec.,
mm/h
press.,
hPa
HPBL,
m
15 may, sat
sat1523:00+19s33545 0.0 102328
02:00+18ssw335693 0.0 102327
05:00+16ssw335770 0.0 102333
08:00+20ssw36565 0.0 1024173
11:00+26ssw57385 0.0 1023650
14:00+29sw672820 0.0 10231358
17:00+29sw56305 0.0 10221688
20:00+25ssw34495 0.0 102159
16 may, sun
sun1623:00+21sw33505 0.0 102120
02:00+18ssw225579 0.0 102116
05:00+17s22565 0.0 102213
08:00+21s25555 0.0 1022155
11:00+26ssw46395 0.0 1022565
14:00+30ssw562777 0.0 10212873
17:00+30sw46292 0.0 10203042
20:00+25s33435 0.0 101925
17 may, mon
mon1723:00+23s354065 0.0 101969
02:00+19s22532 0.0 101919
05:00+18ssw225364 0.0 102016
08:00+21ssw375590 0.0 1021225
11:00+26sw464025 0.0 1021655
14:00+29sw443480 0.0 10201508
17:00+29sw353239 0.0 10192673
20:00+26wsw22485 0.0 101819
18 may, tue
tue1823:00+22wsw01475 0.0 101911
02:00+20wsw22544 0.1 101917
05:00+18w11585 0.1 101911
08:00+21w11575 0.0 1019143
11:00+26nnw22495 0.0 1019633
14:00+28nnw344011 0.0 10181689
17:00+28n453766 0.0 10182178
20:00+18wsw71273100 0.3 1020303
19 may, wed
wed1923:00+18n227482 0.6 101934
02:00+17ne337185 0.0 101940
05:00+15ne2270100 0.0 102015
08:00+18ne35655 0.0 1021224
11:00+22e45495 0.0 1021876
14:00+25ese45380 0.0 10211683
17:00+26se34344 0.0 10201923
20:00+23ese34531 0.0 102071